Flag for Chile Weather past 2 weeks in Santiago, Chile

Now
64 °F

Clear.


Feels Like: 64 °F
Forecast: 47 / 72 °F
Wind: 12 mph from South

Location: Pudahuel


UV Index: 3 (Moderate)

Visibility: 10 mi


Pressure: 30.04 "Hg

Humidity: 49%

Dew point: 45 °F

Location of SantiagoLocation

Historic Weather in Santiago

°F

Santiago temperature yesterday

Maximum temperature yesterday: 82 °F (at 3:00 PM)
Minimum temperature yesterday: 48 °F (at 7:00 AM)
Average temperature yesterday: 64 °F

Past Weeks' High & Low Weather Summary

 TemperatureHumidityPressure
High86 °F (Apr 13, 5:00 PM)94% (Apr 6, 11:00 AM)30.21 "Hg (Apr 6, 11:00 AM)
Low41 °F (Apr 13, 8:00 AM)7% (Apr 13, 5:00 PM)29.86 "Hg (Apr 14, 4:00 PM)
Average60 °F50%30.02 "Hg
* Reported Apr 1 8:00 PM — Apr 16 8:00 PM, Santiago, Weather by CustomWeather, © 2014

Note: Actual official high and low records may vary slightly from our data, if they occured in-between our weather recording intervals... More about our weather records

Advertising

Historic Weather Conditions — Data for Previous 24 hours

 ConditionsComfort  
Time TempWeatherWind HumidityBarometerVisibility
8:00 PM
Apr 16
66 °FClear.13 mph49%30.04 "Hg10 mi
7:00 PM68 °FClear.15 mph49%30.01 "Hg10 mi
6:00 PM70 °FSunny.18 mph46%30.01 "Hg10 mi
5:00 PM72 °FSunny.17 mph44%29.98 "Hg10 mi
4:00 PM73 °FSunny.15 mph41%29.98 "Hg10 mi
3:00 PM72 °FPassing clouds.13 mph44%29.98 "HgN/A
2:00 PM70 °FSunny.2 mph46%29.98 "Hg10 mi
1:00 PM66 °FPassing clouds.3 mph52%30.01 "HgN/A
12:00 PM63 °FScattered clouds.2 mph59%30.04 "Hg5 mi
11:00 AM57 °FScattered clouds.2 mph72%30.04 "Hg5 mi
10:00 AM55 °FBroken clouds.8 mph77%30.01 "Hg4 mi
9:00 AM52 °FScattered clouds.7 mph82%30.01 "Hg4 mi
8:00 AM50 °FBroken clouds.3 mph88%29.98 "Hg4 mi
7:00 AM50 °FPassing clouds.3 mph82%29.98 "Hg4 mi
6:00 AM50 °FPassing clouds.3 mph88%29.98 "Hg5 mi
5:00 AM54 °FPassing clouds.5 mph77%29.95 "Hg5 mi
4:00 AM52 °FPassing clouds.6 mph82%29.98 "Hg5 mi
3:00 AM54 °FPassing clouds.6 mph82%29.98 "Hg5 mi
2:00 AM55 °FClear.5 mph77%29.98 "Hg10 mi
1:00 AM57 °FClear.6 mph72%29.98 "Hg10 mi
12:00 AM59 °FClear.7 mph68%29.98 "Hg10 mi
11:00 PM
Apr 15
61 °FClear.8 mph63%29.95 "Hg10 mi
10:00 PM66 °FClear.12 mph52%29.92 "Hg10 mi
Weather by CustomWeather, © 2014

See weather overview